Year,Month,Day,Hour,Minute,Value (Times are PST for temperature in C)
2009,05,28,00,00,9.70
2009,05,28,00,01,9.70
2009,05,28,00,02,9.70
2009,05,28,00,03,9.60
2009,05,28,00,04,9.60
2009,05,28,00,05,9.50
2009,05,28,00,06,9.50
2009,05,28,00,07,9.40
2009,05,28,00,08,9.40
2009,05,28,00,09,9.40
2009,05,28,00,10,9.40
2009,05,28,00,11,9.30
2009,05,28,00,12,9.30
2009,05,28,00,13,9.30
2009,05,28,00,14,9.30
2009,05,28,00,15,9.30
2009,05,28,00,16,9.30
2009,05,28,00,17,9.30
2009,05,28,00,18,9.30
2009,05,28,00,19,9.30
2009,05,28,00,20,9.30
2009,05,28,00,21,9.30
2009,05,28,00,22,9.30
2009,05,28,00,23,9.30
2009,05,28,00,24,9.30
2009,05,28,00,25,9.30
2009,05,28,00,26,9.30
2009,05,28,00,27,9.30
2009,05,28,00,28,9.20
2009,05,28,00,29,9.20
2009,05,28,00,30,9.20
2009,05,28,00,31,9.10
2009,05,28,00,32,9.10
2009,05,28,00,33,9.10
2009,05,28,00,34,9.00
2009,05,28,00,35,9.00
2009,05,28,00,36,9.00
2009,05,28,00,37,8.90
2009,05,28,00,38,8.90
2009,05,28,00,39,8.90
2009,05,28,00,40,8.90
2009,05,28,00,41,8.80
2009,05,28,00,42,8.80
2009,05,28,00,43,8.80
2009,05,28,00,44,8.80
2009,05,28,00,45,8.80
2009,05,28,00,46,8.80
2009,05,28,00,47,8.80
2009,05,28,00,48,8.80
2009,05,28,00,49,8.80
2009,05,28,00,50,8.70
2009,05,28,00,51,8.70
2009,05,28,00,52,8.70
2009,05,28,00,53,8.70
2009,05,28,00,54,8.70
2009,05,28,00,55,8.60
2009,05,28,00,56,8.60
2009,05,28,00,57,8.60
2009,05,28,00,58,8.60
2009,05,28,00,59,8.60
2009,05,28,01,00,8.60
2009,05,28,01,01,8.60
2009,05,28,01,02,8.60
2009,05,28,01,03,8.60
2009,05,28,01,04,8.60
2009,05,28,01,05,8.60
2009,05,28,01,06,8.60
2009,05,28,01,07,8.60
2009,05,28,01,08,8.60
2009,05,28,01,09,8.60
2009,05,28,01,10,8.70
2009,05,28,01,11,8.80
2009,05,28,01,12,8.80
2009,05,28,01,13,8.80
2009,05,28,01,14,8.80
2009,05,28,01,15,8.90
2009,05,28,01,16,8.90
2009,05,28,01,17,8.80
2009,05,28,01,18,8.80
2009,05,28,01,19,8.80
2009,05,28,01,20,8.70
2009,05,28,01,21,8.70
2009,05,28,01,22,8.70
2009,05,28,01,23,8.60
2009,05,28,01,24,8.60
2009,05,28,01,25,8.50
2009,05,28,01,26,8.50
2009,05,28,01,27,8.50
2009,05,28,01,28,8.40
2009,05,28,01,29,8.40
2009,05,28,01,30,8.40
2009,05,28,01,31,8.30
2009,05,28,01,32,8.30
2009,05,28,01,33,8.30
2009,05,28,01,34,8.30
2009,05,28,01,35,8.30
2009,05,28,01,36,8.30
2009,05,28,01,37,8.30
2009,05,28,01,38,8.30
2009,05,28,01,39,8.30
2009,05,28,01,40,8.30
2009,05,28,01,41,8.30
2009,05,28,01,42,8.30
2009,05,28,01,43,8.30
2009,05,28,01,44,8.30
2009,05,28,01,45,8.30
2009,05,28,01,46,8.30
2009,05,28,01,47,8.30
2009,05,28,01,48,8.30
2009,05,28,01,49,8.30
2009,05,28,01,50,8.40
2009,05,28,01,51,8.40
2009,05,28,01,52,8.40
2009,05,28,01,53,8.40
2009,05,28,01,54,8.40
2009,05,28,01,55,8.40
2009,05,28,01,56,8.40
2009,05,28,01,57,8.40
2009,05,28,01,58,8.40
2009,05,28,01,59,8.40
2009,05,28,02,00,8.40
2009,05,28,02,01,8.30
2009,05,28,02,02,8.30
2009,05,28,02,03,8.30
2009,05,28,02,04,8.30
2009,05,28,02,05,8.30
2009,05,28,02,06,8.20
2009,05,28,02,07,8.20
2009,05,28,02,08,8.20
2009,05,28,02,09,8.20
2009,05,28,02,10,8.10
2009,05,28,02,11,8.10
2009,05,28,02,12,8.10
2009,05,28,02,13,8.10
2009,05,28,02,14,8.00
2009,05,28,02,15,8.00
2009,05,28,02,16,8.00
2009,05,28,02,17,7.90
2009,05,28,02,18,7.90
2009,05,28,02,19,7.90
2009,05,28,02,20,7.90
2009,05,28,02,21,7.80
2009,05,28,02,22,7.80
2009,05,28,02,23,7.80
2009,05,28,02,24,7.80
2009,05,28,02,25,7.80
2009,05,28,02,26,7.80
2009,05,28,02,27,7.80
2009,05,28,02,28,7.70
2009,05,28,02,29,7.70
2009,05,28,02,30,7.70
2009,05,28,02,31,7.70
2009,05,28,02,32,7.70
2009,05,28,02,33,7.70
2009,05,28,02,34,7.70
2009,05,28,02,35,7.70
2009,05,28,02,36,7.70
2009,05,28,02,37,7.70
2009,05,28,02,38,7.70
2009,05,28,02,39,7.70
2009,05,28,02,40,7.70
2009,05,28,02,41,7.70
2009,05,28,02,42,7.60
2009,05,28,02,43,7.60
2009,05,28,02,44,7.70
2009,05,28,02,45,7.70
2009,05,28,02,46,7.70
2009,05,28,02,47,7.70
2009,05,28,02,48,7.70
2009,05,28,02,49,7.70
2009,05,28,02,50,7.70
2009,05,28,02,51,7.70
2009,05,28,02,52,7.70
2009,05,28,02,53,7.70
2009,05,28,02,54,7.70
2009,05,28,02,55,7.70
2009,05,28,02,56,7.70
2009,05,28,02,57,7.80
2009,05,28,02,58,7.80
2009,05,28,02,59,7.80
2009,05,28,03,00,7.80
2009,05,28,03,01,7.80
2009,05,28,03,02,7.80
2009,05,28,03,03,7.80
2009,05,28,03,04,7.80
2009,05,28,03,05,7.80
2009,05,28,03,06,7.80
2009,05,28,03,07,7.80
2009,05,28,03,08,7.80
2009,05,28,03,09,7.80
2009,05,28,03,10,7.70
2009,05,28,03,11,7.70
2009,05,28,03,12,7.70
2009,05,28,03,13,7.60
2009,05,28,03,14,7.60
2009,05,28,03,15,7.60
2009,05,28,03,16,7.60
2009,05,28,03,17,7.60
2009,05,28,03,18,7.60
2009,05,28,03,19,7.60
2009,05,28,03,20,7.60
2009,05,28,03,21,7.60
2009,05,28,03,22,7.60
2009,05,28,03,23,7.60
2009,05,28,03,24,7.60
2009,05,28,03,25,7.60
2009,05,28,03,26,7.60
2009,05,28,03,27,7.60
2009,05,28,03,28,7.60
2009,05,28,03,29,7.60
2009,05,28,03,30,7.60
2009,05,28,03,31,7.60
2009,05,28,03,32,7.60
2009,05,28,03,33,7.60
2009,05,28,03,34,7.60
2009,05,28,03,35,7.60
2009,05,28,03,36,7.60
2009,05,28,03,37,7.60
2009,05,28,03,38,7.60
2009,05,28,03,39,7.60
2009,05,28,03,40,7.60
2009,05,28,03,41,7.60
2009,05,28,03,42,7.60
2009,05,28,03,43,7.60
2009,05,28,03,44,7.60
2009,05,28,03,45,7.60
2009,05,28,03,46,7.60
2009,05,28,03,47,7.70
2009,05,28,03,48,7.70
2009,05,28,03,49,7.70
2009,05,28,03,50,7.70
2009,05,28,03,51,7.70
2009,05,28,03,52,7.70
2009,05,28,03,53,7.70
2009,05,28,03,54,7.70
2009,05,28,03,55,7.70
2009,05,28,03,56,7.70
2009,05,28,03,57,7.70
2009,05,28,03,58,7.70
2009,05,28,03,59,7.70
2009,05,28,04,00,7.70
2009,05,28,04,01,7.70
2009,05,28,04,02,7.70
2009,05,28,04,03,7.60
2009,05,28,04,04,7.60
2009,05,28,04,05,7.60
2009,05,28,04,06,7.60
2009,05,28,04,07,7.60
2009,05,28,04,08,7.50
2009,05,28,04,09,7.50
2009,05,28,04,10,7.40
2009,05,28,04,11,7.40
2009,05,28,04,12,7.40
2009,05,28,04,13,7.40
2009,05,28,04,14,7.40
2009,05,28,04,15,7.40
2009,05,28,04,16,7.40
2009,05,28,04,17,7.40
2009,05,28,04,18,7.40
2009,05,28,04,19,7.40
2009,05,28,04,20,7.40
2009,05,28,04,21,7.40
2009,05,28,04,22,7.40
2009,05,28,04,23,7.30
2009,05,28,04,24,7.30
2009,05,28,04,25,7.30
2009,05,28,04,26,7.30
2009,05,28,04,27,7.30
2009,05,28,04,28,7.30
2009,05,28,04,29,7.30
2009,05,28,04,30,7.30
2009,05,28,04,31,7.30
2009,05,28,04,32,7.30
2009,05,28,04,33,7.30
2009,05,28,04,34,7.30
2009,05,28,04,35,7.30
2009,05,28,04,36,7.30
2009,05,28,04,37,7.30
2009,05,28,04,38,7.30
2009,05,28,04,39,7.30
2009,05,28,04,40,7.30
2009,05,28,04,41,7.30
2009,05,28,04,42,7.30
2009,05,28,04,43,7.30
2009,05,28,04,44,7.30
2009,05,28,04,45,7.20
2009,05,28,04,46,7.20
2009,05,28,04,47,7.20
2009,05,28,04,48,7.20
2009,05,28,04,49,7.20
2009,05,28,04,50,7.20
2009,05,28,04,51,7.20
2009,05,28,04,52,7.20
2009,05,28,04,53,7.20
2009,05,28,04,54,7.10
2009,05,28,04,55,7.10
2009,05,28,04,56,7.10
2009,05,28,04,57,7.10
2009,05,28,04,58,7.10
2009,05,28,04,59,7.10
2009,05,28,05,00,7.10
2009,05,28,05,01,7.10
2009,05,28,05,02,7.10
2009,05,28,05,03,7.10
2009,05,28,05,04,7.10
2009,05,28,05,05,7.10
2009,05,28,05,06,7.10
2009,05,28,05,07,7.10
2009,05,28,05,08,7.10
2009,05,28,05,09,7.10
2009,05,28,05,10,7.10
2009,05,28,05,11,7.10
2009,05,28,05,12,7.10
2009,05,28,05,13,7.10
2009,05,28,05,14,7.10
2009,05,28,05,15,7.00
2009,05,28,05,16,7.00
2009,05,28,05,17,7.00
2009,05,28,05,18,7.00
2009,05,28,05,19,7.00
2009,05,28,05,20,7.00
2009,05,28,05,21,7.00
2009,05,28,05,22,6.90
2009,05,28,05,23,6.90
2009,05,28,05,24,6.90
2009,05,28,05,25,6.90
2009,05,28,05,26,6.90
2009,05,28,05,27,6.90
2009,05,28,05,28,6.90
2009,05,28,05,29,6.90
2009,05,28,05,30,6.80
2009,05,28,05,31,6.80
2009,05,28,05,32,6.80
2009,05,28,05,33,6.80
2009,05,28,05,34,6.70
2009,05,28,05,35,6.70
2009,05,28,05,36,6.70
2009,05,28,05,37,6.70
2009,05,28,05,38,6.60
2009,05,28,05,39,6.60
2009,05,28,05,40,6.60
2009,05,28,05,41,6.60
2009,05,28,05,42,6.60
2009,05,28,05,43,6.60
2009,05,28,05,44,6.60
2009,05,28,05,45,6.60
2009,05,28,05,46,6.60
2009,05,28,05,47,6.60
2009,05,28,05,48,6.60
2009,05,28,05,49,6.60
2009,05,28,05,50,6.60
2009,05,28,05,51,6.60
2009,05,28,05,52,6.60
2009,05,28,05,53,6.60
2009,05,28,05,54,6.60
2009,05,28,05,55,6.60
2009,05,28,05,56,6.60
2009,05,28,05,57,6.60
2009,05,28,05,58,6.60
2009,05,28,05,59,6.60
2009,05,28,06,00,6.60
2009,05,28,06,01,6.60
2009,05,28,06,02,6.50
2009,05,28,06,03,6.50
2009,05,28,06,04,6.50
2009,05,28,06,05,6.50
2009,05,28,06,06,6.50
2009,05,28,06,07,6.60
2009,05,28,06,08,6.50
2009,05,28,06,09,6.50
2009,05,28,06,10,6.50
2009,05,28,06,11,6.50
2009,05,28,06,12,6.50
2009,05,28,06,13,6.50
2009,05,28,06,14,6.50
2009,05,28,06,15,6.60
2009,05,28,06,16,6.60
2009,05,28,06,17,6.60
2009,05,28,06,18,6.60
2009,05,28,06,19,6.60
2009,05,28,06,20,6.60
2009,05,28,06,21,6.70
2009,05,28,06,22,6.70
2009,05,28,06,23,6.70
2009,05,28,06,24,6.70
2009,05,28,06,25,6.80
2009,05,28,06,26,6.80
2009,05,28,06,27,6.80
2009,05,28,06,28,6.80
2009,05,28,06,29,6.80
2009,05,28,06,30,6.80
2009,05,28,06,31,6.80
2009,05,28,06,32,6.80
2009,05,28,06,33,6.80
2009,05,28,06,34,6.90
2009,05,28,06,35,6.90
2009,05,28,06,36,6.90
2009,05,28,06,37,7.00
2009,05,28,06,38,7.00
2009,05,28,06,39,7.00
2009,05,28,06,40,7.10
2009,05,28,06,41,7.10
2009,05,28,06,42,7.20
2009,05,28,06,43,7.20
2009,05,28,06,44,7.20
2009,05,28,06,45,7.20
2009,05,28,06,46,7.20
2009,05,28,06,47,7.30
2009,05,28,06,48,7.30
2009,05,28,06,49,7.40
2009,05,28,06,50,7.40
2009,05,28,06,51,7.50
2009,05,28,06,52,7.60
2009,05,28,06,53,7.60
2009,05,28,06,54,7.70
2009,05,28,06,55,7.80
2009,05,28,06,56,7.90
2009,05,28,06,57,8.00
2009,05,28,06,58,8.10
2009,05,28,06,59,8.10
2009,05,28,07,00,8.20
2009,05,28,07,01,8.30
2009,05,28,07,02,8.30
2009,05,28,07,03,8.40
2009,05,28,07,04,8.40
2009,05,28,07,05,8.50
2009,05,28,07,06,8.60
2009,05,28,07,07,8.60
2009,05,28,07,08,8.70
2009,05,28,07,09,8.80
2009,05,28,07,10,8.80
2009,05,28,07,11,8.90
2009,05,28,07,12,9.00
2009,05,28,07,13,9.10
2009,05,28,07,14,9.20
2009,05,28,07,15,9.20
2009,05,28,07,16,9.30
2009,05,28,07,17,9.40
2009,05,28,07,18,9.50
2009,05,28,07,19,9.70
2009,05,28,07,20,9.80
2009,05,28,07,21,9.90
2009,05,28,07,22,10.10
2009,05,28,07,23,10.20
2009,05,28,07,24,10.40
2009,05,28,07,25,10.50
2009,05,28,07,26,10.70
2009,05,28,07,27,10.80
2009,05,28,07,28,10.90
2009,05,28,07,29,11.10
2009,05,28,07,30,11.20
2009,05,28,07,31,11.30
2009,05,28,07,32,11.40
2009,05,28,07,33,11.50
2009,05,28,07,34,11.60
2009,05,28,07,35,11.70
2009,05,28,07,36,11.80
2009,05,28,07,37,11.90
2009,05,28,07,38,12.00
2009,05,28,07,39,12.10
2009,05,28,07,40,12.10
2009,05,28,07,41,12.20
2009,05,28,07,42,12.20
2009,05,28,07,43,12.30
2009,05,28,07,44,12.40
2009,05,28,07,45,12.40
2009,05,28,07,46,12.50
2009,05,28,07,47,12.50
2009,05,28,07,48,12.60
2009,05,28,07,49,12.70
2009,05,28,07,50,12.80
2009,05,28,07,51,12.80
2009,05,28,07,52,12.90
2009,05,28,07,53,13.00
2009,05,28,07,54,13.00
2009,05,28,07,55,13.10
2009,05,28,07,56,13.20
2009,05,28,07,57,13.30
2009,05,28,07,58,13.30
2009,05,28,07,59,13.40
2009,05,28,08,00,13.40
2009,05,28,08,01,13.40
2009,05,28,08,02,13.40
2009,05,28,08,03,13.40
2009,05,28,08,04,13.40
2009,05,28,08,05,13.40
2009,05,28,08,06,13.40
2009,05,28,08,07,13.40
2009,05,28,08,08,13.40
2009,05,28,08,09,13.40
2009,05,28,08,10,13.40
2009,05,28,08,11,13.40
2009,05,28,08,12,13.50
2009,05,28,08,13,13.50
2009,05,28,08,14,13.50
2009,05,28,08,15,13.50
2009,05,28,08,16,13.50
2009,05,28,08,17,13.60
2009,05,28,08,18,13.60
2009,05,28,08,19,13.60
2009,05,28,08,20,13.60
2009,05,28,08,21,13.60
2009,05,28,08,22,13.70
2009,05,28,08,23,13.70
2009,05,28,08,24,13.80
2009,05,28,08,25,13.80
2009,05,28,08,26,13.80
2009,05,28,08,27,13.90
2009,05,28,08,28,13.90
2009,05,28,08,29,14.00
2009,05,28,08,30,14.00
2009,05,28,08,31,14.00
2009,05,28,08,32,14.00
2009,05,28,08,33,14.10
2009,05,28,08,34,14.10
2009,05,28,08,35,14.10
2009,05,28,08,36,14.10
2009,05,28,08,37,14.20
2009,05,28,08,38,14.20
2009,05,28,08,39,14.20
2009,05,28,08,40,14.20
2009,05,28,08,41,14.20
2009,05,28,08,42,14.20
2009,05,28,08,43,14.20
2009,05,28,08,44,14.20
2009,05,28,08,45,14.30
2009,05,28,08,46,14.30
2009,05,28,08,47,14.30
2009,05,28,08,48,14.30
2009,05,28,08,49,14.30
2009,05,28,08,50,14.30
2009,05,28,08,51,14.40
2009,05,28,08,52,14.40
2009,05,28,08,53,14.50
2009,05,28,08,54,14.60
2009,05,28,08,55,14.70
2009,05,28,08,56,14.70
2009,05,28,08,57,14.70
2009,05,28,08,58,14.70
2009,05,28,08,59,14.70
2009,05,28,09,00,14.70
2009,05,28,09,01,14.70
2009,05,28,09,02,14.70
2009,05,28,09,03,14.70
2009,05,28,09,04,14.60
2009,05,28,09,05,14.60
2009,05,28,09,06,14.60
2009,05,28,09,07,14.60
2009,05,28,09,08,14.70
2009,05,28,09,09,14.80
2009,05,28,09,10,14.80
2009,05,28,09,11,15.00
2009,05,28,09,12,15.00
2009,05,28,09,13,15.00
2009,05,28,09,14,15.00
2009,05,28,09,15,15.00
2009,05,28,09,16,15.10
2009,05,28,09,17,15.20
2009,05,28,09,18,15.20
2009,05,28,09,19,15.20
2009,05,28,09,20,15.20
2009,05,28,09,21,15.20
2009,05,28,09,22,15.30
2009,05,28,09,23,15.30
2009,05,28,09,24,15.30
2009,05,28,09,25,15.40
2009,05,28,09,26,15.40
2009,05,28,09,27,15.50
2009,05,28,09,28,15.60
2009,05,28,09,29,15.60
2009,05,28,09,30,15.60
2009,05,28,09,31,15.70
2009,05,28,09,32,15.70
2009,05,28,09,33,15.70
2009,05,28,09,34,15.70
2009,05,28,09,35,15.70
2009,05,28,09,36,15.70
2009,05,28,09,37,15.70
2009,05,28,09,38,15.80
2009,05,28,09,39,15.80
2009,05,28,09,40,15.90
2009,05,28,09,41,15.90
2009,05,28,09,42,16.00
2009,05,28,09,43,16.00
2009,05,28,09,44,16.00
2009,05,28,09,45,16.10
2009,05,28,09,46,16.10
2009,05,28,09,47,16.10
2009,05,28,09,48,16.10
2009,05,28,09,49,16.10
2009,05,28,09,50,16.10
2009,05,28,09,51,16.20
2009,05,28,09,52,16.20
2009,05,28,09,53,16.30
2009,05,28,09,54,16.30
2009,05,28,09,55,16.40
2009,05,28,09,56,16.50
2009,05,28,09,57,16.50
2009,05,28,09,58,16.60
2009,05,28,09,59,16.70
2009,05,28,10,00,16.90
2009,05,28,10,01,17.00
2009,05,28,10,02,17.20
2009,05,28,10,03,17.20
2009,05,28,10,04,17.30
2009,05,28,10,05,17.40
2009,05,28,10,06,17.50
2009,05,28,10,07,17.60
2009,05,28,10,08,17.70
2009,05,28,10,09,17.70
2009,05,28,10,10,17.80
2009,05,28,10,11,17.80
2009,05,28,10,12,17.80
2009,05,28,10,13,17.80
2009,05,28,10,14,17.80
2009,05,28,10,15,17.80
2009,05,28,10,16,17.80
2009,05,28,10,17,17.70
2009,05,28,10,18,17.60
2009,05,28,10,19,17.60
2009,05,28,10,20,17.50
2009,05,28,10,21,17.40
2009,05,28,10,22,17.40
2009,05,28,10,23,17.40
2009,05,28,10,24,17.40
2009,05,28,10,25,17.30
2009,05,28,10,26,17.30
2009,05,28,10,27,17.30
2009,05,28,10,28,17.30
2009,05,28,10,29,17.30
2009,05,28,10,30,17.30
2009,05,28,10,31,17.40
2009,05,28,10,32,17.50
2009,05,28,10,33,17.60
2009,05,28,10,34,17.70
2009,05,28,10,35,17.80
2009,05,28,10,36,17.90
2009,05,28,10,37,18.00
2009,05,28,10,38,18.20
2009,05,28,10,39,18.20
2009,05,28,10,40,18.30
2009,05,28,10,41,18.30
2009,05,28,10,42,18.20
2009,05,28,10,43,18.10
2009,05,28,10,44,18.00
2009,05,28,10,45,17.90
2009,05,28,10,46,17.90
2009,05,28,10,47,17.90
2009,05,28,10,48,17.90
2009,05,28,10,49,17.80
2009,05,28,10,50,17.80
2009,05,28,10,51,17.80
2009,05,28,10,52,17.70
2009,05,28,10,53,17.60
2009,05,28,10,54,17.60
2009,05,28,10,55,17.70
2009,05,28,10,56,17.70
2009,05,28,10,57,17.70
2009,05,28,10,58,17.70
2009,05,28,10,59,17.70
2009,05,28,11,00,17.70
2009,05,28,11,01,17.70
2009,05,28,11,02,17.70
2009,05,28,11,03,17.70
2009,05,28,11,04,17.70
2009,05,28,11,05,17.70
2009,05,28,11,06,17.70
2009,05,28,11,07,17.70
2009,05,28,11,08,17.80
2009,05,28,11,09,17.90
2009,05,28,11,10,18.00
2009,05,28,11,11,18.00
2009,05,28,11,12,18.00
2009,05,28,11,13,18.10
2009,05,28,11,14,18.20
2009,05,28,11,15,18.30
2009,05,28,11,16,18.30
2009,05,28,11,17,18.30
2009,05,28,11,18,18.30
2009,05,28,11,19,18.20
2009,05,28,11,20,18.10
2009,05,28,11,21,18.00
2009,05,28,11,22,17.90
2009,05,28,11,23,17.90
2009,05,28,11,24,17.90
2009,05,28,11,25,17.90
2009,05,28,11,26,17.90
2009,05,28,11,27,17.90
2009,05,28,11,28,17.90
2009,05,28,11,29,17.90
2009,05,28,11,30,17.90
2009,05,28,11,31,18.00
2009,05,28,11,32,18.10
2009,05,28,11,33,18.20
2009,05,28,11,34,18.20
2009,05,28,11,35,18.20
2009,05,28,11,36,18.20
2009,05,28,11,37,18.20
2009,05,28,11,38,18.30
2009,05,28,11,39,18.30
2009,05,28,11,40,18.30
2009,05,28,11,41,18.30
2009,05,28,11,42,18.30
2009,05,28,11,43,18.40
2009,05,28,11,44,18.50
2009,05,28,11,45,18.60
2009,05,28,11,46,18.60
2009,05,28,11,47,18.70
2009,05,28,11,48,18.80
2009,05,28,11,49,18.80
2009,05,28,11,50,18.80
2009,05,28,11,51,18.80
2009,05,28,11,52,18.90
2009,05,28,11,53,19.00
2009,05,28,11,54,19.10
2009,05,28,11,55,19.20
2009,05,28,11,56,19.30
2009,05,28,11,57,19.30
2009,05,28,11,58,19.40
2009,05,28,11,59,19.30
2009,05,28,12,00,19.20
2009,05,28,12,01,19.20
2009,05,28,12,02,19.10
2009,05,28,12,03,19.00
2009,05,28,12,04,18.90
2009,05,28,12,05,18.80
2009,05,28,12,06,18.80
2009,05,28,12,07,18.80
2009,05,28,12,08,19.00
2009,05,28,12,09,19.10
2009,05,28,12,10,19.30
2009,05,28,12,11,19.40
2009,05,28,12,12,19.60
2009,05,28,12,13,19.70
2009,05,28,12,14,19.90
2009,05,28,12,15,20.00
2009,05,28,12,16,20.00
2009,05,28,12,17,20.00
2009,05,28,12,18,19.90
2009,05,28,12,19,19.80
2009,05,28,12,20,19.60
2009,05,28,12,21,19.60
2009,05,28,12,22,19.50
2009,05,28,12,23,19.40
2009,05,28,12,24,19.50
2009,05,28,12,25,19.50
2009,05,28,12,26,19.50
2009,05,28,12,27,19.60
2009,05,28,12,28,19.60
2009,05,28,12,29,19.60
2009,05,28,12,30,19.60
2009,05,28,12,31,19.60
2009,05,28,12,32,19.60
2009,05,28,12,33,19.60
2009,05,28,12,34,19.60
2009,05,28,12,35,19.70
2009,05,28,12,36,19.70
2009,05,28,12,37,19.70
2009,05,28,12,38,19.70
2009,05,28,12,39,19.70
2009,05,28,12,40,19.70
2009,05,28,12,41,19.80
2009,05,28,12,42,19.80
2009,05,28,12,43,19.70
2009,05,28,12,44,19.60
2009,05,28,12,45,19.60
2009,05,28,12,46,19.50
2009,05,28,12,47,19.40
2009,05,28,12,48,19.20
2009,05,28,12,49,19.10
2009,05,28,12,50,19.10
2009,05,28,12,51,19.10
2009,05,28,12,52,19.20
2009,05,28,12,53,19.30
2009,05,28,12,54,19.40
2009,05,28,12,55,19.60
2009,05,28,12,56,19.70
2009,05,28,12,57,19.90
2009,05,28,12,58,20.00
2009,05,28,12,59,20.00
2009,05,28,13,00,20.00
2009,05,28,13,01,19.90
2009,05,28,13,02,19.90
2009,05,28,13,03,19.90
2009,05,28,13,04,20.00
2009,05,28,13,05,20.10
2009,05,28,13,06,20.20
2009,05,28,13,07,20.20
2009,05,28,13,08,20.30
2009,05,28,13,09,20.40
2009,05,28,13,10,20.40
2009,05,28,13,11,20.40
2009,05,28,13,12,20.40
2009,05,28,13,13,20.40
2009,05,28,13,14,20.50
2009,05,28,13,15,20.50
2009,05,28,13,16,20.60
2009,05,28,13,17,20.60
2009,05,28,13,18,20.50
2009,05,28,13,19,20.50
2009,05,28,13,20,20.50
2009,05,28,13,21,20.60
2009,05,28,13,22,20.70
2009,05,28,13,23,20.80
2009,05,28,13,24,20.80
2009,05,28,13,25,20.90
2009,05,28,13,26,21.00
2009,05,28,13,27,21.10
2009,05,28,13,28,21.10
2009,05,28,13,29,21.20
2009,05,28,13,30,21.20
2009,05,28,13,31,21.20
2009,05,28,13,32,21.10
2009,05,28,13,33,21.00
2009,05,28,13,34,21.00
2009,05,28,13,35,20.90
2009,05,28,13,36,20.90
2009,05,28,13,37,20.90
2009,05,28,13,38,20.90
2009,05,28,13,39,20.80
2009,05,28,13,40,20.80
2009,05,28,13,41,20.80
2009,05,28,13,42,20.90
2009,05,28,13,43,20.90
2009,05,28,13,44,21.00
2009,05,28,13,45,21.10
2009,05,28,13,46,21.10
2009,05,28,13,47,21.10
2009,05,28,13,48,21.00
2009,05,28,13,49,21.00
2009,05,28,13,50,21.00
2009,05,28,13,51,20.90
2009,05,28,13,52,20.80
2009,05,28,13,53,20.90
2009,05,28,13,54,20.90
2009,05,28,13,55,21.00
2009,05,28,13,56,21.10
2009,05,28,13,57,21.20
2009,05,28,13,58,21.30
2009,05,28,13,59,21.40
2009,05,28,14,00,21.40
2009,05,28,14,01,21.50
2009,05,28,14,02,21.50
2009,05,28,14,03,21.50
2009,05,28,14,04,21.60
2009,05,28,14,05,21.60
2009,05,28,14,06,21.70
2009,05,28,14,07,21.80
2009,05,28,14,08,21.80
2009,05,28,14,09,21.80
2009,05,28,14,10,21.80
2009,05,28,14,11,21.70
2009,05,28,14,12,21.50
2009,05,28,14,13,21.40
2009,05,28,14,14,21.30
2009,05,28,14,15,21.10
2009,05,28,14,16,21.10
2009,05,28,14,17,21.00
2009,05,28,14,18,21.00
2009,05,28,14,19,21.10
2009,05,28,14,20,21.10
2009,05,28,14,21,21.10
2009,05,28,14,22,21.00
2009,05,28,14,23,21.00
2009,05,28,14,24,21.00
2009,05,28,14,25,21.00
2009,05,28,14,26,21.10
2009,05,28,14,27,21.20
2009,05,28,14,28,21.20
2009,05,28,14,29,21.30
2009,05,28,14,30,21.20
2009,05,28,14,31,21.20
2009,05,28,14,32,21.10
2009,05,28,14,33,21.10
2009,05,28,14,34,21.00
2009,05,28,14,35,20.90
2009,05,28,14,36,20.90
2009,05,28,14,37,20.80
2009,05,28,14,38,20.70
2009,05,28,14,39,20.80
2009,05,28,14,40,20.80
2009,05,28,14,41,20.90
2009,05,28,14,42,21.00
2009,05,28,14,43,21.00
2009,05,28,14,44,20.90
2009,05,28,14,45,20.80
2009,05,28,14,46,20.80
2009,05,28,14,47,20.70
2009,05,28,14,48,20.80
2009,05,28,14,49,20.80
2009,05,28,14,50,20.90
2009,05,28,14,51,21.00
2009,05,28,14,52,21.10
2009,05,28,14,53,21.20
2009,05,28,14,54,21.30
2009,05,28,14,55,21.40
2009,05,28,14,56,21.60
2009,05,28,14,57,21.70
2009,05,28,14,58,21.80
2009,05,28,14,59,21.90
2009,05,28,15,00,21.90
2009,05,28,15,01,21.90
2009,05,28,15,02,22.00
2009,05,28,15,03,22.10
2009,05,28,15,04,22.10
2009,05,28,15,05,22.10
2009,05,28,15,06,22.10
2009,05,28,15,07,22.00
2009,05,28,15,08,22.00
2009,05,28,15,09,21.90
2009,05,28,15,10,21.80
2009,05,28,15,11,21.80
2009,05,28,15,12,21.80
2009,05,28,15,13,21.80
2009,05,28,15,14,21.80
2009,05,28,15,15,21.90
2009,05,28,15,16,22.00
2009,05,28,15,17,22.10
2009,05,28,15,18,22.10
2009,05,28,15,19,22.20
2009,05,28,15,20,22.20
2009,05,28,15,21,22.20
2009,05,28,15,22,22.20
2009,05,28,15,23,22.20
2009,05,28,15,24,22.20
2009,05,28,15,25,22.20
2009,05,28,15,26,22.20
2009,05,28,15,27,22.20
2009,05,28,15,28,22.20
2009,05,28,15,29,22.20
2009,05,28,15,30,22.20
2009,05,28,15,31,22.20
2009,05,28,15,32,22.20
2009,05,28,15,33,22.20
2009,05,28,15,34,22.10
2009,05,28,15,35,22.10
2009,05,28,15,36,22.10
2009,05,28,15,37,22.10
2009,05,28,15,38,22.10
2009,05,28,15,39,22.10
2009,05,28,15,40,22.10
2009,05,28,15,41,22.10
2009,05,28,15,42,22.10
2009,05,28,15,43,22.10
2009,05,28,15,44,22.20
2009,05,28,15,45,22.20
2009,05,28,15,46,22.20
2009,05,28,15,47,22.30
2009,05,28,15,48,22.40
2009,05,28,15,49,22.50
2009,05,28,15,50,22.60
2009,05,28,15,51,22.70
2009,05,28,15,52,22.80
2009,05,28,15,53,22.80
2009,05,28,15,54,22.90
2009,05,28,15,55,23.10
2009,05,28,15,56,23.20
2009,05,28,15,57,23.30
2009,05,28,15,58,23.40
2009,05,28,15,59,23.50
2009,05,28,16,00,23.50
2009,05,28,16,01,23.40
2009,05,28,16,02,23.30
2009,05,28,16,03,23.10
2009,05,28,16,04,23.00
2009,05,28,16,05,23.00
2009,05,28,16,06,22.90
2009,05,28,16,07,22.90
2009,05,28,16,08,22.80
2009,05,28,16,09,22.70
2009,05,28,16,10,22.70
2009,05,28,16,11,22.60
2009,05,28,16,12,22.60
2009,05,28,16,13,22.50
2009,05,28,16,14,22.50
2009,05,28,16,15,22.40
2009,05,28,16,16,22.40
2009,05,28,16,17,22.40
2009,05,28,16,18,22.40
2009,05,28,16,19,22.40
2009,05,28,16,20,22.40
2009,05,28,16,21,22.40
2009,05,28,16,22,22.40
2009,05,28,16,23,22.40
2009,05,28,16,24,22.30
2009,05,28,16,25,22.30
2009,05,28,16,26,22.30
2009,05,28,16,27,22.30
2009,05,28,16,28,22.20
2009,05,28,16,29,22.20
2009,05,28,16,30,22.10
2009,05,28,16,31,22.10
2009,05,28,16,32,22.10
2009,05,28,16,33,22.00
2009,05,28,16,34,22.00
2009,05,28,16,35,22.00
2009,05,28,16,36,22.00
2009,05,28,16,37,22.10
2009,05,28,16,38,22.10
2009,05,28,16,39,22.20
2009,05,28,16,40,22.20
2009,05,28,16,41,22.20
2009,05,28,16,42,22.30
2009,05,28,16,43,22.40
2009,05,28,16,44,22.50
2009,05,28,16,45,22.60
2009,05,28,16,46,22.70
2009,05,28,16,47,22.70
2009,05,28,16,48,22.70
2009,05,28,16,49,22.70
2009,05,28,16,50,22.70
2009,05,28,16,51,22.80
2009,05,28,16,52,22.80
2009,05,28,16,53,22.70
2009,05,28,16,54,22.70
2009,05,28,16,55,22.60
2009,05,28,16,56,22.60
2009,05,28,16,57,22.50
2009,05,28,16,58,22.40
2009,05,28,16,59,22.30
2009,05,28,17,00,22.20
2009,05,28,17,01,22.10
2009,05,28,17,02,22.10
2009,05,28,17,03,22.10
2009,05,28,17,04,22.10
2009,05,28,17,05,22.10
2009,05,28,17,06,22.20
2009,05,28,17,07,22.30
2009,05,28,17,08,22.30
2009,05,28,17,09,22.40
2009,05,28,17,10,22.50
2009,05,28,17,11,22.60
2009,05,28,17,12,22.80
2009,05,28,17,13,22.80
2009,05,28,17,14,22.90
2009,05,28,17,15,22.90
2009,05,28,17,16,22.90
2009,05,28,17,17,23.00
2009,05,28,17,18,23.00
2009,05,28,17,19,23.00
2009,05,28,17,20,23.00
2009,05,28,17,21,23.00
2009,05,28,17,22,23.10
2009,05,28,17,23,23.10
2009,05,28,17,24,23.10
2009,05,28,17,25,23.10
2009,05,28,17,26,23.10
2009,05,28,17,27,23.10
2009,05,28,17,28,23.10
2009,05,28,17,29,23.10
2009,05,28,17,30,23.20
2009,05,28,17,31,23.20
2009,05,28,17,32,23.30
2009,05,28,17,33,23.40
2009,05,28,17,34,23.40
2009,05,28,17,35,23.40
2009,05,28,17,36,23.50
2009,05,28,17,37,23.60
2009,05,28,17,38,23.60